RH
39 54 66 67 65 69 52 44 31 15 12 12 12 11 9 9 9 11 12 13 14 13 15 16 16 18 18 18 18 23 26 28 29 29 30 34 31 33 36 37 39 40 39
9 26 54 67 81 96 76 56 47 38 19 14 12 12 12 10 9 9 10 12 14 12 12 14 15 17 18 19 21 19 20 22 25 25 27 30 30 29 30 30 32 39 41
7 9 52 98 84 60 96 95 58 47 42 32 17 13 12 12 11 10 10 10 13 14 13 12 14 16 17 19 22 24 22 24 24 26 28 28 29 28 27 28 31 33 35
7 7 7 11 47 97 76 96 96 74 61 44 42 26 16 12 12 12 10 11 13 13 13 13 14 14 17 18 20 21 24 24 26 30 30 30 28 27 25 24 26 31 34
11 8 7 6 16 71 97 70 93 96 94 80 52 46 35 20 14 12 12 11 11 12 12 13 13 13 15 16 16 17 24 24 24 27 27 26 27 24 22 21 22 32 39
16 13 9 8 6 6 19 97 85 95 96 96 95 77 45 44 29 16 13 12 12 13 15 16 13 14 14 13 13 14 18 23 24 26 26 24 22 21 25 19 22 34 36
17 17 15 12 10 7 6 15 93 97 96 79 96 96 74 46 52 45 23 15 13 13 14 15 16 13 13 12 12 11 13 15 17 21 24 25 18 25 29 22 28 34 41
13 16 17 16 15 12 8 6 7 31 32 84 96 96 94 91 70 61 59 44 20 14 14 16 16 15 15 13 10 10 18 11 16 18 20 19 20 26 39 48 39 45 51
10 12 15 17 16 16 13 9 6 5 9 30 70 95 98 86 100 88 78 75 70 27 15 15 16 17 15 15 15 29 28 11 14 14 14 19 23 33 48 57 53 57 59
8 10 12 14 15 15 14 11 9 6 5 6 24 49 99 90 96 98 93 86 78 52 20 16 19 19 20 17 18 21 14 12 13 17 17 19 31 59 68 86 88 70 64
7 6 8 11 12 12 12 12 10 8 6 5 90 89 71 97 98 96 100 97 97 86 37 24 27 73 43 23 20 17 16 14 15 19 21 29 39 54 76 91 93 78 70
14 9 7 7 9 10 10 11 10 9 7 6 55 71 98 96 99 96 95 96 98 90 48 70 53 24 56 36 24 20 18 21 23 20 27 36 44 82 74 94 95 76 67
21 21 13 10 9 12 17 30 16 11 8 6 17 52 93 97 99 87 92 97 97 96 96 82 51 58 65 68 71 41 22 54 21 25 49 63 75 89 86 97 92 75 65
32 42 27 13 13 13 18 19 19 18 11 8 5 7 14 54 94 68 75 95 93 98 96 87 94 83 53 87 45 25 24 23 28 40 85 67 88 81 89 95 89 83 70
48 46 35 18 16 17 22 27 23 16 15 12 8 6 5 6 12 91 98 100 95 100 96 94 94 90 74 39 58 57 46 94 89 82 86 87 89 85 96 97 91 79 64
55 57 41 24 21 21 30 37 39 26 17 14 12 10 7 6 7 14 74 71 83 96 100 98 100 95 90 57 57 80 97 60 40 50 80 84 85 97 94 90 83 66 60
76 61 44 29 32 24 28 36 40 36 26 21 16 14 12 10 11 8 33 52 63 91 99 100 100 96 61 73 88 50 37 39 40 65 83 94 98 93 92 86 69 56 42
97 61 48 41 38 26 27 34 42 37 29 25 22 18 13 11 10 12 23 34 35 97 95 93 92 92 93 71 39 37 54 69 90 96 95 97 93 90 92 68 51 42 40
73 49 39 48 45 26 28 35 40 36 37 26 23 23 17 16 13 12 18 85 97 89 96 95 88 95 86 79 84 88 98 98 93 98 97 92 90 94 74 49 43 42 43
50 46 65 52 55 32 32 41 36 28 32 31 30 24 16 35 100 28 43 98 92 92 91 100 100 100 95 86 87 98 96 98 99 98 94 86 93 72 50 51 50 52 50
84 76 64 68 54 30 32 38 36 38 34 35 40 81 79 90 100 100 100 100 100 100 100 99 98 96 94 94 97 99 100 97 99 86 87 86 68 58 52 53 55 51 43
95 83 94 77 48 32 35 39 48 38 68 29 41 82 83 98 100 100 100 100 100 100 100 95 99 98 92 98 100 100 100 99 90 90 95 76 68 60 59 56 51 43 36
99 100 84 65 41 30 32 35 44 44 36 26 26 26 100 94 100 100 100 100 100 100 100 100 100 96 100 100 100 100 99 95 93 95 78 80 68 64 58 51 44 37 30
100 87 80 66 48 34 32 36 45 46 50 36 37 89 100 100 100 100 98 99 100 100 100 100 100 100 100 100 100 100 98 96 96 79 67 70 65 59 55 46 40 34 25
100 69 54 47 47 45 47 50 49 38 39 54 75 96 100 100 100 99 100 100 100 99 100 100 100 100 100 100 100 98 96 96 86 67 59 57 50 44 43 43 36 26 13
69 68 66 56 52 52 52 47 39 51 80 96 99 100 100 100 100 100 100 99 100 100 100 98 100 100 100 99 94 95 89 72 66 62 54 48 44 37 32 32 24 13 11
Wind_Speed
48 47 47 48 51 50 49 45 41 42 40 37 35 33 31 31 30 30 28 28 30 29 27 25 23 20 18 16 15 14 13 13 13 13 14 14 17 18 20 22 20 22 23
51 52 49 55 48 54 55 51 48 45 43 41 39 37 35 33 32 32 31 30 31 30 31 29 28 26 22 21 20 19 19 18 18 19 20 20 22 25 25 26 25 23 25
55 54 55 49 54 61 50 60 52 49 46 42 42 41 39 37 36 35 34 33 33 32 33 32 31 30 28 26 26 26 23 23 23 23 24 25 26 28 29 29 30 30 31
57 58 60 60 58 41 61 40 56 57 50 50 45 45 41 40 39 38 37 36 35 35 35 34 35 34 33 31 31 32 29 28 28 29 28 28 29 30 31 32 33 34 35
61 61 61 65 65 55 37 57 55 39 60 61 51 49 43 42 41 41 40 38 38 36 38 37 37 36 35 36 37 36 34 34 34 34 33 34 33 33 34 34 35 37 39
65 65 65 64 64 67 65 39 47 51 43 46 46 56 51 45 44 44 43 43 41 40 40 40 39 40 39 39 39 39 39 39 38 38 37 38 37 35 37 36 38 41 42
68 68 67 67 67 66 68 65 48 48 56 52 55 53 50 53 48 45 45 45 44 44 43 44 43 43 42 41 41 42 42 42 42 42 41 40 38 39 41 40 42 45 46
69 69 70 69 68 68 67 68 69 69 60 54 42 53 51 51 52 50 47 47 48 46 46 46 46 45 45 45 44 44 43 45 44 44 43 43 41 39 42 46 45 48 52
68 70 70 71 71 69 68 67 68 71 70 64 58 49 47 50 54 55 51 50 52 49 48 49 50 49 49 46 45 43 51 47 46 44 46 44 42 41 43 46 51 51 52
59 65 68 68 69 70 69 67 67 67 69 69 62 62 51 53 50 52 56 51 50 52 51 51 51 52 51 50 50 47 50 48 48 45 45 45 45 42 54 56 54 54 53
50 53 60 65 65 66 67 66 66 66 65 65 53 64 66 56 53 53 52 52 58 56 52 52 50 55 53 53 51 50 48 49 49 46 45 46 49 51 48 58 54 54 52
51 47 47 52 59 61 63 64 64 64 64 67 68 59 55 45 42 52 57 56 60 53 52 50 52 55 52 52 51 51 49 47 54 49 48 52 51 52 53 61 56 53 53
49 47 47 43 47 51 55 56 59 57 60 63 72 73 65 54 57 49 48 51 52 58 59 48 54 57 53 50 57 56 49 54 52 51 52 55 55 57 56 58 53 56 55
54 51 49 45 40 44 47 49 55 56 53 57 63 74 80 78 62 61 57 53 50 57 53 52 55 50 53 54 51 51 48 48 51 52 53 62 62 58 67 55 55 58 57
57 52 49 46 41 38 41 44 46 50 49 49 50 59 67 72 72 58 51 53 45 46 54 54 56 57 46 51 51 54 50 56 56 57 59 57 59 61 69 58 58 56 57
54 52 51 46 41 37 36 38 37 41 47 47 45 46 47 57 67 73 73 68 72 56 55 54 57 49 46 52 53 56 55 57 58 61 57 60 63 68 58 57 56 56 58
47 48 48 45 39 35 33 36 37 35 36 42 46 43 45 43 48 62 70 72 65 54 54 49 50 45 49 52 51 52 53 56 60 59 66 63 60 55 54 52 54 56 59
45 42 40 43 36 35 32 32 34 35 34 39 40 42 41 43 44 41 55 54 60 59 44 41 46 50 52 50 53 53 54 57 66 63 62 56 55 53 51 53 55 57 60
39 39 39 40 35 34 32 31 33 36 35 37 39 38 38 39 41 44 44 46 49 57 43 48 53 55 51 54 58 59 58 53 61 63 57 56 52 51 53 55 56 60 63
30 33 35 36 35 35 32 32 33 34 33 35 36 36 39 37 45 42 44 45 50 50 48 51 56 54 52 51 52 52 55 60 60 55 55 53 51 53 55 57 60 61 65
20 29 31 32 34 34 31 32 30 31 31 34 37 34 35 41 45 50 51 52 50 45 48 55 52 52 52 53 53 55 57 52 52 53 50 50 52 56 58 61 63 66 69
15 28 32 33 34 33 31 32 32 32 32 35 31 37 31 41 39 42 46 45 45 45 50 51 47 48 49 50 53 50 49 53 49 48 49 54 57 59 61 63 66 70 73
22 18 28 32 33 34 32 31 33 35 36 32 35 37 37 36 41 42 47 49 48 48 50 40 38 47 47 45 46 47 52 50 45 46 51 55 57 59 63 66 69 73 77
22 25 28 28 30 31 31 31 31 33 32 31 37 38 38 41 49 51 52 49 44 41 37 35 38 41 41 43 49 47 45 44 48 52 54 56 57 59 63 69 73 77 82
19 20 23 25 26 27 30 30 31 28 29 28 29 38 47 43 43 42 41 40 37 37 36 36 35 39 43 42 42 41 44 48 52 55 56 57 60 61 66 72 77 82 84
18 20 20 21 21 24 25 23 28 27 23 29 32 32 35 37 37 37 33 35 36 37 35 35 33 34 37 38 39 44 48 51 52 53 56 58 63 68 69 75 80 85 90
Wind_Direction
243 245 245 243 242 242 238 238 239 239 238 237 237 236 237 238 240 241 237 238 244 247 248 250 254 257 262 267 267 265 265 268 275 280 290 296 305 306 306 310 305 301 299
243 241 247 247 245 252 239 240 237 238 237 237 238 237 237 239 241 242 244 240 242 246 250 250 253 255 259 263 264 266 267 267 269 277 281 285 290 299 303 311 315 311 307
241 240 232 238 248 249 244 245 232 237 239 238 239 238 237 238 240 243 243 244 242 242 245 249 252 254 256 259 261 264 268 268 270 273 275 279 286 290 293 298 302 306 308
242 241 240 241 237 254 250 246 230 233 242 241 241 242 240 240 240 242 246 244 244 247 249 249 250 252 253 257 260 263 265 268 270 272 275 278 282 286 290 292 297 301 303
244 242 241 242 241 240 241 250 252 238 243 241 240 242 241 241 242 243 245 247 248 247 251 250 251 253 254 255 257 262 264 267 269 272 275 279 281 285 290 290 295 300 299
242 243 243 242 241 242 242 242 250 243 252 239 246 245 238 238 242 244 246 246 247 248 246 254 255 255 254 256 258 261 263 266 268 271 274 278 283 283 287 286 289 293 293
242 241 242 244 244 242 241 237 237 238 242 251 251 243 235 241 240 244 246 248 249 249 249 249 247 253 255 255 261 262 264 266 268 271 274 275 276 282 288 286 287 291 291
242 241 241 241 243 244 243 242 239 244 245 242 253 248 241 242 241 245 246 250 250 250 252 251 253 252 253 256 258 263 268 267 267 269 271 273 272 276 285 287 287 291 290
243 241 241 242 242 243 244 242 241 242 242 242 246 245 247 249 244 244 242 247 252 251 250 252 253 254 255 256 257 263 268 264 265 268 272 269 267 275 285 289 287 290 290
243 242 242 241 242 243 244 244 241 240 242 242 244 243 241 245 241 247 250 251 251 251 251 252 254 256 256 257 259 260 263 263 265 263 263 264 266 268 273 283 289 285 286
247 243 240 241 241 241 242 244 244 243 241 241 234 244 242 242 245 246 243 253 251 247 247 251 254 255 261 262 261 260 262 264 266 263 262 259 264 272 279 286 285 285 289
243 245 243 241 240 240 241 241 241 241 240 237 232 236 226 238 244 243 246 251 257 242 244 248 255 254 253 260 263 265 262 267 268 261 261 261 267 276 283 288 284 289 293
240 240 243 242 241 237 237 237 240 240 240 238 235 234 236 239 249 249 252 255 257 254 239 244 251 250 258 257 256 264 262 267 262 261 261 267 271 279 285 285 288 296 294
240 240 239 239 240 238 236 237 238 239 239 239 239 239 241 245 249 253 255 258 255 249 246 246 250 252 253 258 258 261 262 264 258 260 266 275 274 281 286 286 290 294 294
235 236 235 234 237 238 234 232 235 237 239 238 239 242 244 247 245 239 241 246 247 256 255 250 248 249 254 257 261 260 264 271 262 261 263 269 278 286 290 287 294 294 293
228 229 230 229 232 235 235 231 233 236 238 238 240 241 243 245 244 243 247 249 258 264 256 252 249 249 254 260 259 261 265 263 259 261 268 278 283 286 287 291 293 292 292
215 222 226 225 227 229 233 229 230 233 234 237 240 241 241 245 251 247 245 249 258 260 246 247 248 252 255 257 263 260 256 258 261 270 276 284 284 286 291 290 292 293 294
213 219 222 223 222 223 229 230 228 232 234 234 233 233 238 240 245 247 247 256 256 250 251 241 246 251 257 256 256 256 257 264 269 277 283 282 287 291 291 292 294 295 296
210 220 222 214 217 219 225 226 226 231 231 235 234 236 239 238 241 243 245 242 243 254 246 242 244 246 248 253 257 261 265 270 281 282 284 286 289 291 291 293 295 295 298
213 214 204 206 214 214 221 224 230 232 234 232 231 238 240 233 238 235 235 234 236 239 242 248 246 249 253 260 262 267 275 277 281 284 282 287 291 293 295 296 296 297 298
208 203 201 209 210 209 218 223 224 232 228 229 232 240 240 233 238 225 227 228 232 236 239 242 245 250 255 260 270 275 279 279 280 282 287 292 295 295 297 299 299 299 299
193 208 205 209 207 206 216 223 223 232 231 232 239 239 257 246 229 220 223 222 227 233 235 238 243 255 260 267 272 275 275 276 282 290 299 298 298 298 298 299 300 300 300
190 195 202 205 204 207 215 224 231 231 235 236 242 252 242 255 248 243 229 230 229 231 236 240 251 260 265 268 272 274 278 283 290 295 293 295 297 298 300 300 300 301 303
194 198 201 203 209 216 222 230 235 241 247 243 251 244 247 242 239 231 229 232 235 240 246 249 254 261 267 268 273 278 284 293 296 294 295 296 299 301 301 302 304 306 308
204 201 199 203 210 215 225 232 236 242 251 264 260 256 251 226 224 225 234 238 243 248 250 252 256 263 267 274 279 287 294 294 294 295 297 300 300 300 304 308 309 309 308
195 198 197 208 220 223 223 223 226 235 241 259 254 248 227 226 232 236 241 245 247 246 249 256 261 270 276 281 288 292 293 294 297 299 300 301 302 304 306 308 308 309 310